This is the latest recevied weather packets stored in our database for station/object KE5YIM-13. If no packets are shown the sender has not sent any weather packets the latest 10 day(s).
| Time | Temp. | Humidity | Pressure | Rain* | Wind** | Luminosity | Snow |
|---|---|---|---|---|---|---|---|
| 1777920970 | 20° C | 44% | 1010.9 hPa | 0 mm | - | 691 W/m² | - |
| 1777920667 | 20° C | 41% | 1011 hPa | 0 mm | - | 693 W/m² | - |
| 1777920362 | 20° C | 40% | 1011 hPa | 0 mm | - | 707 W/m² | - |
| 1777920058 | 20° C | 39% | 1010.8 hPa | 0 mm | - | 715 W/m² | - |
| 1777919755 | 20° C | 38% | 1011 hPa | 0 mm | - | 726 W/m² | - |
| 1777919453 | 20° C | 37% | 1011.3 hPa | 0 mm | - | 739 W/m² | - |
| 1777919150 | 19.44° C | 39% | 1011.1 hPa | 0 mm | - | 746 W/m² | - |
| 1777918847 | 20° C | 39% | 1011.3 hPa | 0 mm | - | 765 W/m² | - |
| 1777918544 | 20° C | 40% | 1011.3 hPa | 0 mm | - | 759 W/m² | - |
| 1777918243 | 20° C | 40% | 1011.4 hPa | 0 mm | - | 769 W/m² | - |
| 1777917941 | 20° C | 38% | 1011.4 hPa | 0 mm | - | 777 W/m² | - |
| 1777917640 | 20.56° C | 38% | 1011.3 hPa | 0 mm | - | 803 W/m² | - |
| 1777917337 | 20° C | 38% | 1011.5 hPa | 0 mm | - | 790 W/m² | - |
| 1777917033 | 19.44° C | 37% | 1011.7 hPa | 0 mm | - | 786 W/m² | - |
| 1777916731 | 19.44° C | 38% | 1011.8 hPa | 0 mm | - | 790 W/m² | - |
| 1777916428 | 20° C | 37% | 1011.8 hPa | 0 mm | - | 798 W/m² | - |
| 1777916125 | 19.44° C | 40% | 1011.8 hPa | 0 mm | - | 786 W/m² | - |
| 1777915822 | 20° C | 37% | 1011.8 hPa | 0 mm | - | 803 W/m² | - |
| 1777915518 | 19.44° C | 38% | 1011.8 hPa | 0 mm | - | 810 W/m² | - |
| 1777915215 | 19.44° C | 38% | 1011.7 hPa | 0 mm | - | 804 W/m² | - |
| 1777914912 | 19.44° C | 37% | 1012 hPa | 0 mm | - | 812 W/m² | - |
| 1777914609 | 19.44° C | 38% | 1011.9 hPa | 0 mm | - | 809 W/m² | - |
| 1777914304 | 19.44° C | 38% | 1012 hPa | 0 mm | - | 812 W/m² | - |
| 1777914002 | 19.44° C | 37% | 1012 hPa | 0 mm | - | 816 W/m² | - |
| 1777913698 | 18.89° C | 37% | 1012.2 hPa | 0 mm | - | 822 W/m² | - |
* Rain latest hour (hover to see other rain measurements)
** Current wind speed in m/s (hover to see current wind gust speed)